Location: ??
(35.5653°N, 139.6194°E)
Time: 19:09:31
(UTC+00:00)

Cosmos 1980 Rocket - Pass Details

Date: 20 November 2019
Orbit: 828 x 851 km, 71.0° (Epoch: 15 December)

Event Time Altitude Azimuth Distance (km) Brightness Sun altitude
Exits shadow 19:36:12 15° 217° (SW) 2,108 4.0 -21.4°
Drops below altitude 10° 19:37:29 10° 207° (SSW) 2,456 4.4 -21.2°
Sets 19:40:20 0° 193° (SSW) 3,382 5.3 -20.6°
